{"data":{"norad_id":67858,"epoch":"2026-09-19T21:20:16.666656Z","epoch_age_seconds":119312,"freshness":"FRESH","line1":"1 67858U 26034J   26262.88908179  .00021394  00000+0  64227-3 0  9999","line2":"2 67858  53.1579  16.8890 0001166  82.1520 277.9615 15.34411331 33841","mean_motion":15.34411331,"eccentricity":0.0001166,"inclination_deg":53.1579,"raan_deg":16.889,"arg_perigee_deg":82.152,"mean_anomaly_deg":277.9615,"bstar":0.00064227,"rev_number":3384,"period_min":93.847065054031,"perigee_km":461.87192424929,"apogee_km":463.46720033962,"semimajor_km":6840.8065622945,"source":"CELESTRAK","updated_at":"2026-09-20T09:00:43.674922Z"}}